| time (UTC) | temp F | wind direction | speed MPH | gust MPH | rain 1hr in | rain 24hr in | rain mn in | humidity % | barometer mb |
| 20260904112201 | 90 | 185 | 4.0 | 9.0 | 0.00 | 0.00 | 0.00 | 30 | 1020.1 |
| 20260904111702 | 90 | 168 | 5.0 | 9.0 | 0.00 | 0.00 | 0.00 | 31 | 1020.1 |
| 20260904111201 | 89 | 168 | 3.0 | 9.0 | 0.00 | 0.00 | 0.00 | 31 | 1020.1 |
| 20260904110919 | 89 | 116 | 3.0 | 9.0 | 0.00 | 0.00 | 0.00 | 30 | 1020.3 |
| 20260904110201 | 90 | 168 | 3.0 | 9.0 | 0.00 | 0.00 | 0.00 | 30 | 1020.3 |
| 20260904105701 | 90 | 121 | 1.0 | 9.0 | 0.00 | 0.00 | 0.00 | 29 | 1020.4 |
| 20260904105201 | 91 | 130 | 6.0 | 9.0 | 0.00 | 0.00 | 0.00 | 29 | 1020.3 |
| 20260904104700 | 90 | 92 | 4.0 | 5.0 | 0.00 | 0.00 | 0.00 | 29 | 1020.4 |
| 20260904104420 | 90 | 120 | 2.0 | 4.0 | 0.00 | 0.00 | 0.00 | 29 | 1020.4 |
| 20260904103700 | 89 | 106 | 2.0 | 6.0 | 0.00 | 0.00 | 0.00 | 29 | 1020.6 |
| 20260904103201 | 90 | 107 | 4.0 | 7.0 | 0.00 | 0.00 | 0.00 | 29 | 1020.7 |
| 20260904102705 | 88 | 68 | 3.0 | 7.0 | 0.00 | 0.00 | 0.00 | 30 | 1020.7 |
| 20260904102200 | 88 | 61 | 4.0 | 6.0 | 0.00 | 0.00 | 0.00 | 30 | 1020.8 |
| 20260904101939 | 89 | 87 | 3.0 | 5.0 | 0.00 | 0.00 | 0.00 | 30 | 1020.9 |
| 20260904101200 | 88 | 89 | 2.0 | 6.0 | 0.00 | 0.00 | 0.00 | 30 | 1020.9 |
| 20260904100704 | 88 | 107 | 3.0 | 6.0 | 0.00 | 0.00 | 0.00 | 30 | 1020.9 |
| 20260904100159 | 88 | 87 | 5.0 | 6.0 | 0.00 | 0.00 | 0.00 | 30 | 1021.1 |
| 20260904095659 | 86 | 25 | 3.0 | 5.0 | 0.00 | 0.00 | 0.00 | 30 | 1021.1 |
| 20260904095159 | 86 | 14 | 4.0 | 7.0 | 0.00 | 0.00 | 0.00 | 30 | 1021.2 |
| 20260904094659 | 87 | 73 | 6.0 | 7.0 | 0.00 | 0.00 | 0.00 | 30 | 1021.2 |
| 20260904094159 | 87 | 86 | 2.0 | 9.0 | 0.00 | 0.00 | 0.00 | 30 | 1021.2 |
| 20260904094150 | 87 | 80 | 6.0 | 9.0 | 0.00 | 0.00 | 0.00 | 30 | 1021.3 |
| 20260904093159 | 87 | 92 | 1.0 | 7.0 | 0.00 | 0.00 | 0.00 | 32 | 1021.3 |
| 20260904092659 | 87 | 87 | 4.0 | 7.0 | 0.00 | 0.00 | 0.00 | 32 | 1021.4 |
| 20260904092159 | 87 | 99 | 2.0 | 5.0 | 0.00 | 0.00 | 0.00 | 33 | 1021.4 |
| 20260904091659 | 87 | 85 | 3.0 | 6.0 | 0.00 | 0.00 | 0.00 | 34 | 1021.5 |
| 20260904091159 | 86 | 58 | 5.0 | 6.0 | 0.00 | 0.00 | 0.00 | 34 | 1021.5 |
| 20260904090917 | 85 | 86 | 3.0 | 5.0 | 0.00 | 0.00 | 0.00 | 36 | 1021.5 |
| 20260904090158 | 85 | 104 | 3.0 | 5.0 | 0.00 | 0.00 | 0.00 | 36 | 1021.6 |
| 20260904085658 | 85 | 151 | 2.0 | 5.0 | 0.00 | 0.00 | 0.00 | 35 | 1021.5 |
| 20260904085158 | 84 | 109 | 2.0 | 3.0 | 0.00 | 0.00 | 0.00 | 37 | 1021.6 |
| 20260904084658 | 84 | 86 | 2.0 | 3.0 | 0.00 | 0.00 | 0.00 | 38 | 1021.6 |
| 20260904084158 | 83 | 76 | 0.0 | 5.0 | 0.00 | 0.00 | 0.00 | 38 | 1021.5 |
| 20260904083919 | 82 | 76 | 2.0 | 5.0 | 0.00 | 0.00 | 0.00 | 39 | 1021.5 |
| 20260904083158 | 83 | 72 | 4.0 | 5.0 | 0.00 | 0.00 | 0.00 | 37 | 1021.5 |
| 20260904082659 | 83 | 76 | 2.0 | 4.0 | 0.00 | 0.00 | 0.00 | 39 | 1021.5 |
| 20260904082158 | 82 | 123 | 2.0 | 4.0 | 0.00 | 0.00 | 0.00 | 40 | 1021.6 |
| 20260904081657 | 82 | 125 | 3.0 | 5.0 | 0.00 | 0.00 | 0.00 | 40 | 1021.5 |
| 20260904081159 | 81 | 130 | 0.0 | 6.0 | 0.00 | 0.00 | 0.00 | 41 | 1021.6 |
| 20260904080657 | 81 | 130 | 3.0 | 6.0 | 0.00 | 0.00 | 0.00 | 41 | 1021.5 |
| 20260904080158 | 80 | 102 | 3.0 | 5.0 | 0.00 | 0.00 | 0.00 | 42 | 1021.5 |
| 20260904075658 | 80 | 99 | 2.0 | 4.0 | 0.00 | 0.00 | 0.00 | 41 | 1021.4 |
| 20260904075156 | 80 | 94 | 3.0 | 4.0 | 0.00 | 0.00 | 0.00 | 42 | 1021.4 |
| 20260904074656 | 80 | 79 | 2.0 | 4.0 | 0.00 | 0.00 | 0.00 | 43 | 1021.5 |
| 20260904074416 | 79 | 90 | 1.0 | 3.0 | 0.00 | 0.00 | 0.00 | 42 | 1021.5 |
| 20260904074141 | 78 | 89 | 1.0 | 3.0 | 0.00 | 0.00 | 0.00 | 43 | 1021.5 |
| 20260904073156 | 78 | 90 | 2.0 | 3.0 | 0.00 | 0.00 | 0.00 | 43 | 1021.5 |
| 20260904072657 | 77 | 89 | 1.0 | 3.0 | 0.00 | 0.00 | 0.00 | 44 | 1021.4 |
| 20260904072156 | 76 | 89 | 1.0 | 3.0 | 0.00 | 0.00 | 0.00 | 45 | 1021.4 |
| 20260904071656 | 76 | 89 | 1.0 | 2.0 | 0.00 | 0.00 | 0.00 | 46 | 1021.4 |
| 20260904071155 | 75 | 89 | 2.0 | 3.0 | 0.00 | 0.00 | 0.00 | 48 | 1021.4 |
| 20260904070656 | 75 | 89 | 1.0 | 3.0 | 0.00 | 0.00 | 0.00 | 48 | 1021.4 |
| 20260904070416 | 75 | 89 | 2.0 | 3.0 | 0.00 | 0.00 | 0.00 | 48 | 1021.4 |
| 20260904065656 | 74 | 89 | 2.0 | 3.0 | 0.00 | 0.00 | 0.00 | 48 | 1021.3 |
| 20260904065155 | 74 | 86 | 1.0 | 3.0 | 0.00 | 0.00 | 0.00 | 47 | 1021.4 |
| 20260904064656 | 73 | 62 | 2.0 | 2.0 | 0.00 | 0.00 | 0.00 | 48 | 1021.3 |
| 20260904064156 | 73 | 62 | 0.0 | 1.0 | 0.00 | 0.00 | 0.00 | 49 | 1021.4 |
| 20260904063655 | 72 | 62 | 0.0 | 0.0 | 0.00 | 0.00 | 0.00 | 51 | 1021.4 |
| 20260904063155 | 71 | 62 | 0.0 | 1.0 | 0.00 | 0.00 | 0.00 | 52 | 1021.5 |
| 20260904063145 | 71 | 63 | 0.0 | 1.0 | 0.00 | 0.00 | 0.00 | 53 | 1021.5 |
| 20260904062415 | 70 | 65 | 0.0 | 0.0 | 0.00 | 0.00 | 0.00 | 54 | 1021.4 |
| 20260904061655 | 70 | 0 | 0.0 | 0.0 | 0.00 | 0.00 | 0.00 | 54 | 1021.4 |
| 20260904061159 | 69 | 0 | 0.0 | 0.0 | 0.00 | 0.00 | 0.00 | 54 | 1021.3 |
| 20260904060653 | 69 | 0 | 0.0 | 2.0 | 0.00 | 0.00 | 0.00 | 54 | 1021.2 |
| 20260904060152 | 69 | 0 | 1.0 | 2.0 | 0.00 | 0.00 | 0.00 | 54 | 1021.2 |
| 20260904055653 | 69 | 0 | 0.0 | 0.0 | 0.00 | 0.00 | 0.00 | 54 | 1021.2 |
| 20260904055153 | 69 | 0 | 0.0 | 0.0 | 0.00 | 0.00 | 0.00 | 54 | 1021.2 |
| 20260904055135 | 69 | 0 | 0.0 | 1.0 | 0.00 | 0.00 | 0.00 | 54 | 1021.1 |
| 20260904054152 | 69 | 0 | 0.0 | 1.0 | 0.00 | 0.00 | 0.00 | 53 | 1021.1 |
| 20260904053652 | 69 | 0 | 0.0 | 0.0 | 0.00 | 0.00 | 0.00 | 52 | 1021.1 |
| 20260904053153 | 68 | 0 | 0.0 | 0.0 | 0.00 | 0.00 | 0.00 | 52 | 1021.1 |
| 20260904052652 | 68 | 0 | 0.0 | 0.0 | 0.00 | 0.00 | 0.00 | 53 | 1021.0 |
| 20260904052152 | 67 | 0 | 0.0 | 1.0 | 0.00 | 0.00 | 0.00 | 53 | 1020.9 |
| 20260904051652 | 67 | 0 | 0.0 | 2.0 | 0.00 | 0.00 | 0.00 | 54 | 1020.9 |
| 20260904051152 | 67 | 0 | 1.0 | 2.0 | 0.00 | 0.00 | 0.00 | 55 | 1020.8 |
| 20260904050907 | 67 | 0 | 1.0 | 1.0 | 0.00 | 0.00 | 0.00 | 55 | 1020.8 |
| 20260904050151 | 66 | 0 | 0.0 | 0.0 | 0.00 | 0.00 | 0.00 | 56 | 1020.9 |
| 20260904045652 | 66 | 0 | 0.0 | 2.0 | 0.00 | 0.00 | 0.00 | 56 | 1020.8 |
| 20260904045151 | 66 | 0 | 0.0 | 2.0 | 0.00 | 0.00 | 0.00 | 56 | 1020.8 |
| 20260904044913 | 67 | 0 | 1.0 | 2.0 | 0.00 | 0.00 | 0.00 | 55 | 1020.8 |
| 20260904044153 | 67 | 0 | 0.0 | 0.0 | 0.00 | 0.00 | 0.00 | 55 | 1020.8 |
| 20260904043652 | 67 | 0 | 0.0 | 0.0 | 0.00 | 0.00 | 0.00 | 55 | 1020.8 |
| 20260904043152 | 67 | 0 | 0.0 | 0.0 | 0.00 | 0.00 | 0.00 | 55 | 1020.7 |
| 20260904042652 | 67 | 0 | 0.0 | 2.0 | 0.00 | 0.00 | 0.00 | 56 | 1020.8 |
| 20260904042152 | 68 | 0 | 1.0 | 2.0 | 0.00 | 0.00 | 0.00 | 54 | 1020.8 |
| 20260904041651 | 68 | 0 | 0.0 | 0.0 | 0.00 | 0.00 | 0.00 | 54 | 1020.8 |
| 20260904041152 | 68 | 0 | 0.0 | 0.0 | 0.00 | 0.00 | 0.00 | 54 | 1020.8 |
| 20260904040651 | 68 | 0 | 0.0 | 0.0 | 0.00 | 0.00 | 0.00 | 54 | 1020.7 |
| 20260904040152 | 68 | 0 | 0.0 | 0.0 | 0.00 | 0.00 | 0.00 | 54 | 1020.7 |
| 20260904035652 | 68 | 0 | 0.0 | 0.0 | 0.00 | 0.00 | 0.00 | 54 | 1020.6 |
| 20260904035152 | 68 | 0 | 0.0 | 0.0 | 0.00 | 0.00 | 0.00 | 54 | 1020.6 |
| 20260904034651 | 68 | 0 | 0.0 | 0.0 | 0.00 | 0.00 | 0.00 | 54 | 1020.7 |
| 20260904034152 | 69 | 0 | 0.0 | 0.0 | 0.00 | 0.00 | 0.00 | 54 | 1020.7 |
| 20260904033652 | 69 | 0 | 0.0 | 0.0 | 0.00 | 0.00 | 0.00 | 53 | 1020.7 |
| 20260904033413 | 69 | 0 | 0.0 | 0.0 | 0.00 | 0.00 | 0.00 | 53 | 1020.8 |
| 20260904032651 | 70 | 0 | 0.0 | 0.0 | 0.00 | 0.00 | 0.00 | 51 | 1020.7 |
| 20260904032151 | 71 | 0 | 0.0 | 0.0 | 0.00 | 0.00 | 0.00 | 50 | 1020.8 |
| 20260904031912 | 71 | 0 | 0.0 | 1.0 | 0.00 | 0.00 | 0.00 | 49 | 1020.7 |
| 20260904031151 | 71 | 0 | 0.0 | 2.0 | 0.00 | 0.00 | 0.00 | 49 | 1020.7 |
| 20260904030914 | 71 | 0 | 1.0 | 2.0 | 0.00 | 0.00 | 0.00 | 49 | 1020.7 |
| 20260904030151 | 71 | 0 | 2.0 | 3.0 | 0.00 | 0.00 | 0.00 | 49 | 1020.7 |
| 20260904025650 | 71 | 0 | 1.0 | 3.0 | 0.00 | 0.00 | 0.00 | 49 | 1020.7 |
| 20260904025149 | 72 | 0 | 2.0 | 3.0 | 0.00 | 0.00 | 0.00 | 48 | 1020.6 |
| 20260904024915 | 72 | 0 | 0.0 | 0.0 | 0.00 | 0.00 | 0.00 | 48 | 1020.6 |
| 20260904024150 | 72 | 0 | 0.0 | 0.0 | 0.00 | 0.00 | 0.00 | 48 | 1020.6 |
| 20260904023650 | 72 | 0 | 0.0 | 2.0 | 0.00 | 0.00 | 0.00 | 48 | 1020.7 |
| 20260904023149 | 72 | 0 | 0.0 | 2.0 | 0.00 | 0.00 | 0.00 | 47 | 1020.6 |
| 20260904022650 | 72 | 0 | 1.0 | 3.0 | 0.00 | 0.00 | 0.00 | 47 | 1020.7 |
| 20260904022149 | 73 | 0 | 1.0 | 3.0 | 0.00 | 0.00 | 0.00 | 47 | 1020.6 |
| 20260904021649 | 73 | 0 | 0.0 | 2.0 | 0.00 | 0.00 | 0.00 | 48 | 1020.7 |
| 20260904021149 | 73 | 0 | 1.0 | 3.0 | 0.00 | 0.00 | 0.00 | 48 | 1020.8 |
| 20260904020650 | 73 | 0 | 2.0 | 3.0 | 0.00 | 0.00 | 0.00 | 48 | 1020.8 |
| 20260904020149 | 73 | 0 | 2.0 | 2.0 | 0.00 | 0.00 | 0.00 | 48 | 1020.7 |
| 20260904015648 | 73 | 0 | 0.0 | 2.0 | 0.00 | 0.00 | 0.00 | 48 | 1020.7 |
| 20260904015149 | 73 | 0 | 1.0 | 2.0 | 0.00 | 0.00 | 0.00 | 48 | 1020.7 |
| 20260904014649 | 73 | 0 | 0.0 | 2.0 | 0.00 | 0.00 | 0.00 | 48 | 1020.6 |
| 20260904014148 | 73 | 0 | 2.0 | 3.0 | 0.00 | 0.00 | 0.00 | 48 | 1020.7 |
| 20260904013649 | 73 | 0 | 1.0 | 3.0 | 0.00 | 0.00 | 0.00 | 48 | 1020.7 |
| 20260904013148 | 73 | 0 | 1.0 | 2.0 | 0.00 | 0.00 | 0.00 | 48 | 1020.7 |
| 20260904012648 | 73 | 0 | 0.0 | 2.0 | 0.00 | 0.00 | 0.00 | 48 | 1020.7 |
| 20260904012148 | 73 | 0 | 0.0 | 2.0 | 0.00 | 0.00 | 0.00 | 48 | 1020.8 |
| 20260904011633 | 73 | 0 | 1.0 | 1.0 | 0.00 | 0.00 | 0.00 | 48 | 1020.7 |
| 20260904011134 | 73 | 0 | 1.0 | 1.0 | 0.00 | 0.00 | 0.00 | 48 | 1020.7 |
| 20260904010620 | 73 | 0 | 0.0 | 0.0 | 0.00 | 0.00 | 0.00 | 48 | 1020.7 |
| 20260904010113 | 73 | 0 | 0.0 | 0.0 | 0.00 | 0.00 | 0.00 | 47 | 1020.7 |
| 20260904005606 | 73 | 0 | 0.0 | 1.0 | 0.00 | 0.00 | 0.00 | 47 | 1020.6 |
| 20260904005104 | 73 | 0 | 0.0 | 1.0 | 0.00 | 0.00 | 0.00 | 47 | 1020.6 |
| 20260904004604 | 74 | 0 | 0.0 | 3.0 | 0.00 | 0.00 | 0.00 | 47 | 1020.6 |
| 20260904004105 | 74 | 0 | 2.0 | 4.0 | 0.00 | 0.00 | 0.00 | 47 | 1020.6 |
| 20260904003824 | 74 | 0 | 2.0 | 4.0 | 0.00 | 0.00 | 0.00 | 47 | 1020.8 |
| 20260904003105 | 74 | 0 | 2.0 | 3.0 | 0.00 | 0.00 | 0.00 | 46 | 1020.6 |
| 20260904002605 | 74 | 0 | 2.0 | 3.0 | 0.00 | 0.00 | 0.00 | 46 | 1020.8 |
| 20260904002324 | 74 | 0 | 2.0 | 3.0 | 0.00 | 0.00 | 0.00 | 46 | 1020.7 |
| 20260904001605 | 74 | 0 | 3.0 | 3.0 | 0.00 | 0.00 | 0.00 | 45 | 1020.8 |
| 20260904001105 | 75 | 0 | 3.0 | 3.0 | 0.00 | 0.00 | 0.00 | 45 | 1020.8 |
| 20260904000604 | 75 | 0 | 1.0 | 2.0 | 0.00 | 0.00 | 0.00 | 44 | 1020.9 |
| 20260904000105 | 75 | 0 | 1.0 | 2.0 | 0.00 | 0.00 | 0.00 | 44 | 1020.9 |
| 20260903235605 | 76 | 0 | 1.0 | 2.0 | 0.00 | 0.00 | 0.00 | 44 | 1020.8 |
| 20260903235105 | 76 | 0 | 0.0 | 2.0 | 0.00 | 0.00 | 0.00 | 44 | 1020.8 |
| 20260903234604 | 76 | 0 | 0.0 | 2.0 | 0.00 | 0.00 | 0.00 | 44 | 1020.9 |
| 20260903234105 | 76 | 0 | 1.0 | 2.0 | 0.00 | 0.00 | 0.00 | 44 | 1020.8 |
| 20260903233605 | 76 | 0 | 0.0 | 3.0 | 0.00 | 0.00 | 0.00 | 44 | 1020.8 |
| 20260903233104 | 76 | 0 | 0.0 | 3.0 | 0.00 | 0.00 | 0.00 | 44 | 1020.8 |
| 20260903232605 | 76 | 0 | 2.0 | 3.0 | 0.00 | 0.00 | 0.00 | 43 | 1020.9 |
| 20260903232104 | 76 | 0 | 1.0 | 3.0 | 0.00 | 0.00 | 0.00 | 43 | 1020.9 |
| 20260903231605 | 76 | 0 | 0.0 | 1.0 | 0.00 | 0.00 | 0.00 | 43 | 1020.8 |
| 20260903231104 | 77 | 0 | 0.0 | 0.0 | 0.00 | 0.00 | 0.00 | 42 | 1020.8 |
| 20260903230604 | 77 | 0 | 0.0 | 1.0 | 0.00 | 0.00 | 0.00 | 42 | 1020.8 |
| 20260903230327 | 77 | 0 | 0.0 | 2.0 | 0.00 | 0.00 | 0.00 | 41 | 1020.7 |
| 20260903225605 | 77 | 0 | 1.0 | 2.0 | 0.00 | 0.00 | 0.00 | 41 | 1020.6 |
| 20260903225105 | 77 | 0 | 0.0 | 3.0 | 0.00 | 0.00 | 0.00 | 41 | 1020.6 |
| 20260903224604 | 77 | 0 | 1.0 | 3.0 | 0.00 | 0.00 | 0.00 | 41 | 1020.6 |
| 20260903224105 | 77 | 0 | 1.0 | 2.0 | 0.00 | 0.00 | 0.00 | 40 | 1020.7 |
| 20260903223605 | 77 | 0 | 0.0 | 3.0 | 0.00 | 0.00 | 0.00 | 40 | 1020.7 |
| 20260903223105 | 77 | 0 | 2.0 | 3.0 | 0.00 | 0.00 | 0.00 | 40 | 1020.6 |
| 20260903222605 | 77 | 0 | 0.0 | 2.0 | 0.00 | 0.00 | 0.00 | 40 | 1020.7 |
| 20260903222104 | 77 | 0 | 1.0 | 3.0 | 0.00 | 0.00 | 0.00 | 40 | 1020.7 |
| 20260903221555 | 78 | 0 | 2.0 | 3.0 | 0.00 | 0.00 | 0.00 | 40 | 1020.7 |
| 20260903221048 | 78 | 0 | 2.0 | 3.0 | 0.00 | 0.00 | 0.00 | 40 | 1020.5 |
| 20260903220549 | 78 | 0 | 2.0 | 3.0 | 0.00 | 0.00 | 0.00 | 40 | 1020.5 |
| 20260903220045 | 78 | 0 | 1.0 | 2.0 | 0.00 | 0.00 | 0.00 | 40 | 1020.4 |
| 20260903215805 | 78 | 0 | 1.0 | 2.0 | 0.00 | 0.00 | 0.00 | 40 | 1020.5 |
| 20260903215043 | 78 | 0 | 0.0 | 2.0 | 0.00 | 0.00 | 0.00 | 40 | 1020.3 |
| 20260903214544 | 78 | 0 | 1.0 | 3.0 | 0.00 | 0.00 | 0.00 | 40 | 1020.4 |
| 20260903214043 | 78 | 0 | 2.0 | 3.0 | 0.00 | 0.00 | 0.00 | 39 | 1020.3 |
| 20260903213544 | 79 | 0 | 2.0 | 4.0 | 0.00 | 0.00 | 0.00 | 39 | 1020.4 |
| 20260903213043 | 79 | 0 | 2.0 | 4.0 | 0.00 | 0.00 | 0.00 | 38 | 1020.4 |
| 20260903212543 | 79 | 0 | 0.0 | 4.0 | 0.00 | 0.00 | 0.00 | 38 | 1020.4 |
| 20260903212043 | 80 | 0 | 2.0 | 5.0 | 0.00 | 0.00 | 0.00 | 38 | 1020.4 |
| 20260903211542 | 80 | 0 | 4.0 | 5.0 | 0.00 | 0.00 | 0.00 | 38 | 1020.5 |
| 20260903211043 | 80 | 0 | 3.0 | 5.0 | 0.00 | 0.00 | 0.00 | 37 | 1020.5 |
| 20260903210542 | 80 | 0 | 2.0 | 6.0 | 0.00 | 0.00 | 0.00 | 37 | 1020.4 |
| 20260903210043 | 80 | 0 | 3.0 | 6.0 | 0.00 | 0.00 | 0.00 | 37 | 1020.5 |
| 20260903205542 | 80 | 0 | 4.0 | 6.0 | 0.00 | 0.00 | 0.00 | 37 | 1020.5 |
| 20260903205034 | 80 | 0 | 4.0 | 6.0 | 0.00 | 0.00 | 0.00 | 37 | 1020.5 |
| 20260903204533 | 80 | 0 | 4.0 | 6.0 | 0.00 | 0.00 | 0.00 | 37 | 1020.5 |
| 20260903204023 | 80 | 0 | 3.0 | 5.0 | 0.00 | 0.00 | 0.00 | 37 | 1020.4 |
| 20260903203518 | 81 | 0 | 2.0 | 4.0 | 0.00 | 0.00 | 0.00 | 36 | 1020.4 |
| 20260903203014 | 81 | 0 | 3.0 | 4.0 | 0.00 | 0.00 | 0.00 | 36 | 1020.4 |
| 20260903202513 | 81 | 0 | 2.0 | 5.0 | 0.00 | 0.00 | 0.00 | 36 | 1020.3 |
| 20260903202233 | 81 | 0 | 4.0 | 4.0 | 0.00 | 0.00 | 0.00 | 36 | 1020.4 |
| 20260903201505 | 81 | 0 | 2.0 | 4.0 | 0.00 | 0.00 | 0.00 | 36 | 1020.4 |
| 20260903201005 | 82 | 0 | 3.0 | 4.0 | 0.00 | 0.00 | 0.00 | 35 | 1020.4 |
| 20260903200948 | 82 | 0 | 3.0 | 4.0 | 0.00 | 0.00 | 0.00 | 35 | 1020.3 |
| 20260903200004 | 82 | 0 | 2.0 | 4.0 | 0.00 | 0.00 | 0.00 | 35 | 1020.3 |
| 20260903195504 | 82 | 0 | 2.0 | 4.0 | 0.00 | 0.00 | 0.00 | 35 | 1020.3 |
| 20260903195005 | 82 | 0 | 2.0 | 3.0 | 0.00 | 0.00 | 0.00 | 35 | 1020.3 |
| 20260903194504 | 82 | 0 | 2.0 | 3.0 | 0.00 | 0.00 | 0.00 | 35 | 1020.2 |
| 20260903194004 | 83 | 0 | 1.0 | 4.0 | 0.00 | 0.00 | 0.00 | 34 | 1020.2 |
| 20260903193505 | 83 | 0 | 1.0 | 4.0 | 0.00 | 0.00 | 0.00 | 34 | 1020.2 |
| 20260903193223 | 83 | 0 | 2.0 | 4.0 | 0.00 | 0.00 | 0.00 | 34 | 1020.2 |
| 20260903192504 | 83 | 0 | 1.0 | 4.0 | 0.00 | 0.00 | 0.00 | 34 | 1020.2 |
| 20260903192006 | 83 | 0 | 2.0 | 4.0 | 0.00 | 0.00 | 0.00 | 34 | 1020.2 |
| 20260903191505 | 83 | 0 | 3.0 | 4.0 | 0.00 | 0.00 | 0.00 | 33 | 1020.2 |
| 20260903191005 | 83 | 0 | 2.0 | 6.0 | 0.00 | 0.00 | 0.00 | 33 | 1020.1 |
| 20260903190505 | 83 | 0 | 3.0 | 6.0 | 0.00 | 0.00 | 0.00 | 33 | 1020.0 |
| 20260903190451 | 83 | 0 | 3.0 | 4.0 | 0.00 | 0.00 | 0.00 | 32 | 1020.0 |
| 20260903185504 | 83 | 0 | 2.0 | 4.0 | 0.00 | 0.00 | 0.00 | 31 | 1019.9 |
| 20260903185006 | 84 | 0 | 3.0 | 4.0 | 0.00 | 0.00 | 0.00 | 31 | 1019.8 |
| 20260903184724 | 84 | 0 | 2.0 | 3.0 | 0.00 | 0.00 | 0.00 | 31 | 1019.7 |
| 20260903184005 | 85 | 0 | 2.0 | 3.0 | 0.00 | 0.00 | 0.00 | 29 | 1019.7 |
| 20260903183505 | 87 | 0 | 0.0 | 0.0 | 0.00 | 0.00 | 0.00 | 29 | 1019.6 |
| 20260903183005 | 87 | 0 | 0.0 | 0.0 | 0.00 | 0.00 | 0.00 | 28 | 1019.5 |
| 20260903182506 | 87 | 0 | 0.0 | 0.0 | 0.00 | 0.00 | 0.00 | 25 | 1019.5 |
| 20260903182004 | 87 | 192 | 0.0 | 0.0 | 0.00 | 0.00 | 0.00 | 25 | 1019.5 |
| 20260903181729 | 87 | 0 | 0.0 | 0.0 | 0.00 | 0.00 | 0.00 | 24 | 1019.5 |
| 20260903181005 | 88 | 192 | 0.0 | 0.0 | 0.00 | 0.00 | 0.00 | 25 | 1019.4 |
| 20260903180724 | 88 | 0 | 0.0 | 0.0 | 0.00 | 0.00 | 0.00 | 25 | 1019.4 |
| 20260903180007 | 89 | 0 | 0.0 | 0.0 | 0.00 | 0.00 | 0.00 | 24 | 1019.2 |
| 20260903175507 | 89 | 193 | 0.0 | 0.0 | 0.00 | 0.00 | 0.00 | 25 | 1019.4 |
| 20260903175006 | 89 | 193 | 0.0 | 0.0 | 0.00 | 0.00 | 0.00 | 24 | 1019.4 |
| 20260903174505 | 89 | 193 | 0.0 | 0.0 | 0.00 | 0.00 | 0.00 | 23 | 1019.2 |
| 20260903174007 | 89 | 193 | 0.0 | 0.0 | 0.00 | 0.00 | 0.00 | 23 | 1019.2 |
| 20260903173505 | 89 | 193 | 0.0 | 0.0 | 0.00 | 0.00 | 0.00 | 24 | 1019.2 |
| 20260903173007 | 90 | 193 | 0.0 | 2.0 | 0.00 | 0.00 | 0.00 | 25 | 1019.2 |
| 20260903172516 | 90 | 193 | 0.0 | 2.0 | 0.00 | 0.00 | 0.00 | 25 | 1019.2 |
| 20260903172006 | 90 | 193 | 2.0 | 2.0 | 0.00 | 0.00 | 0.00 | 24 | 1019.1 |
| 20260903171506 | 90 | 193 | 1.0 | 2.0 | 0.00 | 0.00 | 0.00 | 24 | 1019.2 |
| 20260903171008 | 90 | 193 | 1.0 | 2.0 | 0.00 | 0.00 | 0.00 | 24 | 1019.1 |
| 20260903170506 | 90 | 192 | 1.0 | 3.0 | 0.00 | 0.00 | 0.00 | 24 | 1019.0 |
| 20260903170006 | 90 | 193 | 2.0 | 4.0 | 0.00 | 0.00 | 0.00 | 23 | 1018.9 |
| 20260903165731 | 90 | 193 | 2.0 | 4.0 | 0.00 | 0.00 | 0.00 | 22 | 1019.0 |
| 20260903165007 | 91 | 228 | 2.0 | 4.0 | 0.00 | 0.00 | 0.00 | 23 | 1019.0 |
| 20260903164506 | 90 | 219 | 1.0 | 5.0 | 0.00 | 0.00 | 0.00 | 22 | 1018.8 |
| 20260903164007 | 90 | 214 | 3.0 | 5.0 | 0.00 | 0.00 | 0.00 | 21 | 1018.8 |
| 20260903163506 | 91 | 216 | 2.0 | 4.0 | 0.00 | 0.00 | 0.00 | 22 | 1018.9 |
| 20260903163006 | 91 | 227 | 1.0 | 5.0 | 0.00 | 0.00 | 0.00 | 22 | 1018.8 |
| 20260903162723 | 90 | 240 | 3.0 | 5.0 | 0.00 | 0.00 | 0.00 | 21 | 1018.9 |
| 20260903162006 | 91 | 203 | 3.0 | 5.0 | 0.00 | 0.00 | 0.00 | 22 | 1018.8 |
| 20260903161727 | 91 | 190 | 1.0 | 5.0 | 0.00 | 0.00 | 0.00 | 21 | 1018.9 |
| 20260903161007 | 91 | 185 | 3.0 | 5.0 | 0.00 | 0.00 | 0.00 | 23 | 1018.9 |
| 20260903160506 | 91 | 180 | 4.0 | 6.0 | 0.00 | 0.00 | 0.00 | 22 | 1018.9 |
| 20260903160239 | 91 | 204 | 4.0 | 6.0 | 0.00 | 0.00 | 0.00 | 21 | 1018.9 |
| 20260903155507 | 90 | 186 | 2.0 | 6.0 | 0.00 | 0.00 | 0.00 | 21 | 1019.0 |
| 20260903155007 | 90 | 190 | 4.0 | 6.0 | 0.00 | 0.00 | 0.00 | 21 | 1019.0 |
| 20260903154506 | 90 | 192 | 4.0 | 6.0 | 0.00 | 0.00 | 0.00 | 23 | 1019.1 |
| 20260903154007 | 91 | 186 | 4.0 | 6.0 | 0.00 | 0.00 | 0.00 | 21 | 1019.1 |
| 20260903153729 | 91 | 248 | 1.0 | 5.0 | 0.00 | 0.00 | 0.00 | 22 | 1019.1 |
| 20260903153006 | 91 | 248 | 3.0 | 5.0 | 0.00 | 0.00 | 0.00 | 21 | 1019.1 |
| 20260903152506 | 92 | 247 | 4.0 | 5.0 | 0.00 | 0.00 | 0.00 | 20 | 1019.1 |
| 20260903152225 | 92 | 164 | 2.0 | 5.0 | 0.00 | 0.00 | 0.00 | 20 | 1019.2 |
| 20260903151506 | 91 | 155 | 1.0 | 7.0 | 0.00 | 0.00 | 0.00 | 21 | 1019.2 |
| 20260903151005 | 91 | 212 | 4.0 | 7.0 | 0.00 | 0.00 | 0.00 | 20 | 1019.2 |
| 20260903150458 | 91 | 180 | 2.0 | 4.0 | 0.00 | 0.00 | 0.00 | 21 | 1019.4 |
| 20260903145950 | 92 | 241 | 3.0 | 5.0 | 0.00 | 0.00 | 0.00 | 20 | 1019.4 |
| 20260903145443 | 92 | 188 | 4.0 | 6.0 | 0.00 | 0.00 | 0.00 | 19 | 1019.5 |
| 20260903144938 | 91 | 234 | 2.0 | 6.0 | 0.00 | 0.00 | 0.00 | 19 | 1019.5 |
| 20260903144438 | 91 | 244 | 4.0 | 6.0 | 0.00 | 0.00 | 0.00 | 20 | 1019.5 |
| 20260903144154 | 92 | 162 | 2.0 | 4.0 | 0.00 | 0.00 | 0.00 | 22 | 1019.4 |
| 20260903143437 | 91 | 158 | 2.0 | 5.0 | 0.00 | 0.00 | 0.00 | 22 | 1019.5 |
| 20260903142935 | 90 | 161 | 3.0 | 5.0 | 0.00 | 0.00 | 0.00 | 22 | 1019.6 |
| 20260903142435 | 90 | 202 | 4.0 | 5.0 | 0.00 | 0.00 | 0.00 | 22 | 1019.6 |
| 20260903141932 | 91 | 203 | 4.0 | 5.0 | 0.00 | 0.00 | 0.00 | 22 | 1019.7 |
| 20260903141434 | 92 | 224 | 2.0 | 5.0 | 0.00 | 0.00 | 0.00 | 22 | 1019.8 |
| 20260903140933 | 92 | 262 | 1.0 | 4.0 | 0.00 | 0.00 | 0.00 | 21 | 1019.9 |
| 20260903140656 | 92 | 80 | 3.0 | 5.0 | 0.00 | 0.00 | 0.00 | 21 | 1019.8 |
| 20260903135933 | 92 | 79 | 3.0 | 7.0 | 0.00 | 0.00 | 0.00 | 21 | 1019.8 |
| 20260903135434 | 92 | 87 | 5.0 | 7.0 | 0.00 | 0.00 | 0.00 | 21 | 1019.8 |
| 20260903135416 | 92 | 128 | 2.0 | 5.0 | 0.00 | 0.00 | 0.00 | 22 | 1019.9 |
| 20260903134434 | 92 | 193 | 2.0 | 5.0 | 0.00 | 0.00 | 0.00 | 25 | 1019.9 |
| 20260903134136 | 92 | 199 | 2.0 | 4.0 | 0.00 | 0.00 | 0.00 | 23 | 1019.8 |
| 20260903134124 | 92 | 248 | 3.0 | 5.0 | 0.00 | 0.00 | 0.00 | 25 | 1019.8 |
| 20260903132933 | 92 | 0 | 2.0 | 7.0 | 0.00 | 0.00 | 0.00 | 22 | 1019.9 |
| 20260903132433 | 92 | 303 | 2.0 | 7.0 | 0.00 | 0.00 | 0.00 | 23 | 1020.0 |
| 20260903131932 | 92 | 65 | 2.0 | 6.0 | 0.00 | 0.00 | 0.00 | 23 | 1020.0 |
| 20260903131434 | 92 | 107 | 2.0 | 5.0 | 0.00 | 0.00 | 0.00 | 23 | 1020.1 |
| 20260903131150 | 92 | 106 | 3.0 | 5.0 | 0.00 | 0.00 | 0.00 | 24 | 1020.1 |
| 20260903130433 | 92 | 85 | 4.0 | 5.0 | 0.00 | 0.00 | 0.00 | 25 | 1020.1 |
| 20260903125931 | 91 | 99 | 2.0 | 7.0 | 0.00 | 0.00 | 0.00 | 23 | 1020.2 |
| 20260903125433 | 91 | 337 | 1.0 | 7.0 | 0.00 | 0.00 | 0.00 | 23 | 1020.1 |
| 20260903124932 | 91 | 23 | 2.0 | 6.0 | 0.00 | 0.00 | 0.00 | 25 | 1020.1 |
| 20260903124433 | 91 | 288 | 4.0 | 6.0 | 0.00 | 0.00 | 0.00 | 26 | 1020.1 |
| 20260903123931 | 90 | 7 | 3.0 | 4.0 | 0.00 | 0.00 | 0.00 | 27 | 1020.1 |
| 20260903123433 | 89 | 155 | 2.0 | 5.0 | 0.00 | 0.00 | 0.00 | 26 | 1020.2 |
| 20260903122932 | 89 | 180 | 4.0 | 5.0 | 0.00 | 0.00 | 0.00 | 27 | 1020.3 |
| 20260903122432 | 89 | 314 | 3.0 | 4.0 | 0.00 | 0.00 | 0.00 | 28 | 1020.2 |
| 20260903122152 | 90 | 107 | 2.0 | 7.0 | 0.00 | 0.00 | 0.00 | 28 | 1020.3 |
| 20260903121432 | 90 | 110 | 4.0 | 7.0 | 0.00 | 0.00 | 0.00 | 28 | 1020.4 |
| 20260903120929 | 90 | 79 | 4.0 | 5.0 | 0.00 | 0.00 | 0.00 | 29 | 1020.4 |
| 20260903120429 | 90 | 87 | 4.0 | 4.0 | 0.00 | 0.00 | 0.00 | 28 | 1020.4 |
| 20260903115929 | 90 | 290 | 0.0 | 5.0 | 0.00 | 0.00 | 0.00 | 28 | 1020.5 |
| 20260903115429 | 88 | 290 | 3.0 | 5.0 | 0.00 | 0.00 | 0.00 | 29 | 1020.5 |
| 20260903114927 | 89 | 192 | 1.0 | 5.0 | 0.00 | 0.00 | 0.00 | 28 | 1020.5 |
| 20260903114427 | 88 | 200 | 4.0 | 6.0 | 0.00 | 0.00 | 0.00 | 30 | 1020.6 |
| 20260903113927 | 88 | 200 | 3.0 | 6.0 | 0.00 | 0.00 | 0.00 | 29 | 1020.6 |
| 20260903113648 | 89 | 200 | 4.0 | 5.0 | 0.00 | 0.00 | 0.00 | 29 | 1020.6 |
| 20260903112928 | 89 | 109 | 2.0 | 5.0 | 0.00 | 0.00 | 0.00 | 30 | 1020.8 |
| 20260903112427 | 89 | 83 | 4.0 | 6.0 | 0.00 | 0.00 | 0.00 | 31 | 1020.8 |